Hourly Weather Klatka

Today, 30 July, Friday

Time Temperature Precipitation Wind Pressure Humidity
00:00 +18°C° 0 mm 3 mps 741 mmHg 79%
01:00 +18°C° 0 mm 3 mps 741 mmHg 77%
02:00 +19°C° 0 mm 3 mps 741 mmHg 75%
03:00 +18°C° 0 mm 3 mps 741 mmHg 78%
04:00 +16°C° 0 mm 3 mps 741 mmHg 82%
05:00 +15°C° 0 mm 2 mps 741 mmHg 86%
06:00 +17°C° 0 mm 3 mps 741 mmHg 80%
07:00 +18°C° 0 mm 3 mps 741 mmHg 73%
08:00 +20°C° 0 mm 3 mps 741 mmHg 67%
09:00 +21°C° 0 mm 4 mps 741 mmHg 61%
10:00 +22°C° 0 mm 4 mps 741 mmHg 55%
11:00 +23°C° 0 mm 5 mps 741 mmHg 49%
12:00 +23°C° 0 mm 5 mps 741 mmHg 51%
13:00 +23°C° 0 mm 5 mps 740 mmHg 52%
14:00 +23°C° 0 mm 5 mps 740 mmHg 53%
15:00 +23°C° 0 mm 5 mps 740 mmHg 53%
16:00 +23°C° 0 mm 5 mps 740 mmHg 52%
17:00 +23°C° 0 mm 5 mps 739 mmHg 52%
18:00 +22°C° 0 mm 4 mps 739 mmHg 56%
19:00 +21°C° 0 mm 4 mps 739 mmHg 59%
20:00 +20°C° 0 mm 3 mps 739 mmHg 63%
21:00 +19°C° 0 mm 3 mps 739 mmHg 65%
22:00 +18°C° 0 mm 3 mps 739 mmHg 66%
23:00 +17°C° 0 mm 3 mps 739 mmHg 68%

Tomorrow, 31 July, Saturday

Time Temperature Precipitation Wind Pressure Humidity
00:00 +17°C° 0 mm 3 mps 739 mmHg 70%
01:00 +16°C° 0 mm 3 mps 739 mmHg 73%
02:00 +16°C° 0 mm 3 mps 739 mmHg 75%
03:00 +14°C° 0 mm 3 mps 739 mmHg 77%
04:00 +15°C° 0 mm 2 mps 739 mmHg 78%
05:00 +15°C° 0 mm 2 mps 739 mmHg 80%
06:00 +16°C° 0 mm 2 mps 740 mmHg 74%
07:00 +18°C° 0 mm 3 mps 740 mmHg 68%
08:00 +20°C° 0 mm 3 mps 740 mmHg 62%
09:00 +21°C° 0 mm 3 mps 740 mmHg 57%
10:00 +24°C° 0 mm 3 mps 740 mmHg 53%
11:00 +26°C° 0 mm 3 mps 740 mmHg 49%
12:00 +26°C° 0 mm 3 mps 740 mmHg 46%
13:00 +27°C° 0 mm 3 mps 740 mmHg 44%
14:00 +28°C° 0 mm 3 mps 740 mmHg 42%
15:00 +29°C° 0 mm 3 mps 739 mmHg 43%
16:00 +29°C° 0 mm 2 mps 739 mmHg 43%
17:00 +29°C° 0 mm 1 mps 739 mmHg 43%
18:00 +26°C° 0.6 mm 2 mps 739 mmHg 60%
19:00 +21°C° 0.6 mm 3 mps 739 mmHg 76%
20:00 +18°C° 0.6 mm 3 mps 738 mmHg 92%
21:00 +18°C° 0.3 mm 3 mps 739 mmHg 94%
22:00 +18°C° 0.3 mm 3 mps 739 mmHg 95%
23:00 +17°C° 0.3 mm 3 mps 739 mmHg 96%

Day after tomorrow, 1 August, Sunday

Time Temperature Precipitation Wind Pressure Humidity
00:00 +17°C° 0 mm 3 mps 739 mmHg 96%
01:00 +17°C° 0 mm 3 mps 739 mmHg 95%
02:00 +16°C° 0 mm 3 mps 739 mmHg 94%
03:00 +16°C° 0 mm 3 mps 739 mmHg 93%
04:00 +14°C° 0 mm 3 mps 739 mmHg 92%
05:00 +13°C° 0 mm 3 mps 739 mmHg 91%
06:00 +16°C° 0 mm 3 mps 740 mmHg 85%
07:00 +17°C° 0 mm 3 mps 740 mmHg 80%
08:00 +18°C° 0 mm 4 mps 740 mmHg 74%
09:00 +20°C° 0 mm 4 mps 740 mmHg 67%
10:00 +22°C° 0 mm 4 mps 740 mmHg 59%
11:00 +23°C° 0 mm 5 mps 741 mmHg 51%
12:00 +25°C° 0 mm 5 mps 740 mmHg 49%
13:00 +25°C° 0 mm 5 mps 740 mmHg 47%
14:00 +26°C° 0 mm 4 mps 740 mmHg 45%
15:00 +23°C° 0 mm 4 mps 740 mmHg 52%
16:00 +22°C° 0 mm 3 mps 740 mmHg 59%
17:00 +20°C° 0 mm 3 mps 740 mmHg 66%
18:00 +19°C° 0.1 mm 3 mps 740 mmHg 71%
19:00 +19°C° 0.1 mm 3 mps 740 mmHg 76%
20:00 +18°C° 0.1 mm 3 mps 740 mmHg 82%
21:00 +17°C° 0.3 mm 3 mps 740 mmHg 86%
22:00 +16°C° 0.3 mm 2 mps 740 mmHg 90%
23:00 +16°C° 0.3 mm 2 mps 740 mmHg 94%

2 August, Monday

Time Temperature Precipitation Wind Pressure Humidity
00:00 +15°C° 0.3 mm 1 mps 740 mmHg 94%
01:00 +15°C° 0.3 mm 1 mps 739 mmHg 94%
02:00 +15°C° 0.3 mm 1 mps 739 mmHg 94%
03:00 +15°C° 0.1 mm 1 mps 739 mmHg 94%
04:00 +15°C° 0.1 mm 1 mps 739 mmHg 94%
05:00 +15°C° 0.1 mm 2 mps 739 mmHg 94%
06:00 +15°C° 0 mm 2 mps 739 mmHg 93%
07:00 +16°C° 0 mm 2 mps 739 mmHg 91%
08:00 +16°C° 0 mm 2 mps 739 mmHg 89%
09:00 +17°C° 0.1 mm 2 mps 739 mmHg 83%
10:00 +19°C° 0.1 mm 3 mps 739 mmHg 76%
11:00 +20°C° 0.1 mm 3 mps 739 mmHg 69%
12:00 +21°C° 0.4 mm 3 mps 739 mmHg 64%
13:00 +22°C° 0.4 mm 4 mps 739 mmHg 59%
14:00 +23°C° 0.4 mm 4 mps 739 mmHg 54%
15:00 +22°C° 0 mm 4 mps 739 mmHg 56%
16:00 +22°C° 0 mm 4 mps 740 mmHg 57%
17:00 +21°C° 0 mm 4 mps 740 mmHg 58%
18:00 +20°C° 0.2 mm 3 mps 740 mmHg 67%
19:00 +18°C° 0.2 mm 3 mps 740 mmHg 77%
20:00 +17°C° 0.2 mm 3 mps 740 mmHg 86%
21:00 +16°C° 0 mm 3 mps 741 mmHg 89%
22:00 +15°C° 0 mm 2 mps 741 mmHg 91%
23:00 +14°C° 0 mm 2 mps 742 mmHg 93%

3 August, Tuesday

Time Temperature Precipitation Wind Pressure Humidity
00:00 +14°C° 0 mm 2 mps 742 mmHg 94%
01:00 +14°C° 0 mm 2 mps 742 mmHg 94%
02:00 +12°C° 0 mm 3 mps 742 mmHg 94%
03:00 +12°C° 0 mm 3 mps 743 mmHg 94%
04:00 +11°C° 0 mm 3 mps 743 mmHg 94%
05:00 +11°C° 0 mm 3 mps 743 mmHg 93%
06:00 +12°C° 0 mm 3 mps 743 mmHg 86%
07:00 +14°C° 0 mm 3 mps 744 mmHg 80%
08:00 +15°C° 0 mm 4 mps 744 mmHg 73%
09:00 +18°C° 0 mm 4 mps 744 mmHg 65%
10:00 +20°C° 0 mm 5 mps 744 mmHg 57%
11:00 +21°C° 0 mm 6 mps 744 mmHg 50%
12:00 +21°C° 0 mm 5 mps 744 mmHg 49%
13:00 +22°C° 0 mm 5 mps 744 mmHg 48%
14:00 +22°C° 0 mm 5 mps 744 mmHg 46%
15:00 +22°C° 0 mm 4 mps 744 mmHg 49%
16:00 +21°C° 0 mm 3 mps 744 mmHg 52%
17:00 +21°C° 0 mm 3 mps 744 mmHg 55%
18:00 +20°C° 0 mm 3 mps 745 mmHg 57%
19:00 +19°C° 0 mm 2 mps 745 mmHg 60%
20:00 +18°C° 0 mm 2 mps 745 mmHg 63%
21:00 +18°C° 0 mm 2 mps 745 mmHg 66%
22:00 +18°C° 0 mm 1 mps 745 mmHg 68%
23:00 +16°C° 0 mm 1 mps 745 mmHg 70%

4 August, Wednesday

Time Temperature Precipitation Wind Pressure Humidity
00:00 +15°C° 0 mm 1 mps 746 mmHg 72%
01:00 +15°C° 0 mm 1 mps 746 mmHg 74%
02:00 +14°C° 0 mm 1 mps 746 mmHg 75%
03:00 +14°C° 0 mm 1 mps 746 mmHg 75%
04:00 +14°C° 0 mm 1 mps 746 mmHg 75%
05:00 +13°C° 0 mm 1 mps 746 mmHg 75%
06:00 +15°C° 0 mm 1 mps 746 mmHg 70%
07:00 +18°C° 0 mm 1 mps 746 mmHg 65%
08:00 +18°C° 0 mm 2 mps 746 mmHg 60%
09:00 +20°C° 0 mm 2 mps 746 mmHg 56%
10:00 +21°C° 0 mm 2 mps 746 mmHg 53%
11:00 +23°C° 0 mm 2 mps 746 mmHg 50%
12:00 +23°C° 0 mm 2 mps 746 mmHg 50%
13:00 +22°C° 0 mm 3 mps 745 mmHg 51%
14:00 +24°C° 0 mm 3 mps 745 mmHg 51%
15:00 +21°C° 2.8 mm 3 mps 745 mmHg 64%
16:00 +19°C° 2.8 mm 2 mps 745 mmHg 78%
17:00 +17°C° 2.8 mm 2 mps 745 mmHg 91%
18:00 +16°C° 2.7 mm 2 mps 744 mmHg 93%
19:00 +16°C° 2.7 mm 3 mps 744 mmHg 95%
20:00 +14°C° 2.7 mm 4 mps 744 mmHg 97%
21:00 +14°C° 0 mm 3 mps 744 mmHg 97%
22:00 +14°C° 0 mm 3 mps 744 mmHg 97%
23:00 +14°C° 0 mm 3 mps 744 mmHg 97%
Show more